Content
SEND FEEDBACK

Daily
Averages
Monthly
Summary
Philippines

QUEZON CITY, PHILIPPINES


Home > Asia > Philippines
Elevation: 46 meters     Latitude: 14 39N     Longitude: 121 03E

WEATHER
 
SELECT A DAY
Number of Records: 172,634;   Date Range: 7/1/96 - 8/30/14
 
SHARE

PRINT THIS DATA

[ ← Previous Day ]
WEATHER ALMANAC - 29 OCTOBER, 2013
[ Next Day → ]
[ °F ]   °C
Weather ElementAverageHighLow
Temperature27.7 °C30 °C (12:00 pm)24 °C (6:00 am)
Dewpoint22.1 °C23 °C (1:00 am)21 °C (8:00 am)
Humidity71.3 %94 % (6:00 am)55 % (2:00 pm)
Barometer1012.5 hPa1014.2 hPa (7:00 am)1010.2 hPa (2:00 pm)
Wind Speed6.9 km/h10.8 km/h (5:00 pm)
Weather ElementAverage
Visibility9.5 km
Wind DirectionESE (98.9 °)

Weather ElementTotal
Precipitation---
Cooling Degree Days8.7 (Base 18.3)
Growing Degree Days17 (Base 10)
Averaged from 28 records on 29 October, 2013
WEATHER CONDITIONS BREAKOUT
WIND DIRECTION BREAKOUT
WEATHER BY HOUR - 29 OCTOBER, 2013
[ °F ]   °C
Local TimeTemperatureDewpointHumidityBarometerVisibilityWind DirectionWind SpeedGust SpeedPrecipitationEventsConditions
1:00 AM26 °C23 °C83 %1013.2 hPa10 kmENE (70°)5.6 km/hPartly Cloudy
2:00 AM25.6 °C22.8 °C82 %1012.9 hPa9.7 kmEast (80°)7.2 km/hHaze
2:00 AM26 °C23 °C83 %1012.2 hPa10 kmEast (80°)7.4 km/hPartly Cloudy
3:00 AM25 °C23 °C89 %1012.2 hPa10 kmEast (80°)3.7 km/hPartly Cloudy
4:00 AM25 °C23 °C89 %1012.2 hPa10 kmCalmPartly Cloudy
5:00 AM25 °C23 °C89 %1012.2 hPa10 kmEast (80°)7.4 km/hPartly Cloudy
6:00 AM24 °C23 °C94 %1013.2 hPa5 kmVariable3.7 km/hPartly Cloudy
7:00 AM26 °C23 °C83 %1014.2 hPa6 kmEast (90°)5.6 km/hScattered Clouds
8:00 AM26.7 °C21.1 °C64 %1014.2 hPa9.7 kmESE (110°)7.2 km/hHaze
8:00 AM28 °C21 °C66 %1014.2 hPa10 kmESE (120°)5.6 km/hScattered Clouds
9:00 AM29 °C21 °C62 %1014.2 hPa10 kmSE (130°)7.4 km/hScattered Clouds
10:00 AM29 °C22 °C66 %1014.2 hPa10 kmVariable5.6 km/hScattered Clouds
11:00 AM28.3 °C22.8 °C65 %1013.5 hPa9.7 kmWest (260°)7.2 km/hHaze
11:00 AM29 °C23 °C70 %1013.2 hPa10 kmWest (260°)9.3 km/hScattered Clouds
12:00 PM30 °C22 °C62 %1012.2 hPa10 kmVariable9.3 km/hScattered Clouds
1:00 PM29 °C22 °C66 %1011.2 hPa10 kmWSW (250°)9.3 km/hScattered Clouds
2:00 PM30 °C22.2 °C55 %1010.8 hPa9.7 kmSE (140°)7.2 km/hHaze
2:00 PM30 °C22 °C62 %1010.2 hPaNorthScattered Clouds
3:00 PM30 °C22 °C62 %1010.2 hPaNorthMostly Cloudy
4:00 PM30 °C21 °C58 %1010.2 hPa10 kmSSE (160°)9.3 km/hPartly Cloudy
5:00 PM30 °C22 °C62 %1010.2 hPa10 kmSE (130°)9.3 km/hPartly Cloudy
5:00 PM29.4 °C21.7 °C55 %1010.2 hPa9.7 kmSE (130°)10.8 km/hHaze
6:00 PM28 °C22 °C70 %1011.2 hPa10 kmESE (120°)9.3 km/hScattered Clouds
7:00 PM28 °C21 °C66 %1012.2 hPa10 kmESE (110°)7.4 km/hPartly Cloudy
8:00 PM27 °C21 °C70 %1012.2 hPa10 kmESE (120°)5.6 km/hPartly Cloudy
9:00 PM27 °C21 °C70 %1013.2 hPa10 kmSE (130°)7.4 km/hPartly Cloudy
10:00 PM26 °C22 °C78 %1013.2 hPa10 kmVariable5.6 km/hPartly Cloudy
11:00 PM27 °C22 °C74 %1013.2 hPa10 kmESE (120°)7.4 km/hMostly Cloudy
Hourly data recorded from RPLL, located 0 kilometers away from Quezon City, Philippines







STORIES FROM OUR PARTNERS